Location: Boiro
(42.6475°N, 8.8834°W)
Time: 00:26:53
(UTC+02:00)

AO-85 - Visible Passes

Search period start: 25 April 2024 00:00
Search period end: 05 May 2024 00:00
Orbit: 516 x 753 km, 64.8° (Epoch: 04 January)

Date Brightness Start Highest point End Pass type
(mag) Time Alt. Az. Time Alt. Az. Time Alt. Az.
25 Apr ? 00:34:35 12° NE 00:34:35 12° NE 00:34:52 10° NE visible
25 Apr ? 02:11:44 22° NNW 02:11:44 22° NNW 02:14:33 10° NNE visible
26 Apr ? 00:51:53 24° NNE 00:51:53 24° NNE 00:53:48 10° NNE visible
26 Apr ? 02:29:01 14° NW 02:30:04 14° NW 02:32:37 10° N visible
26 Apr ? 23:31:47 10° ENE 23:31:47 10° ENE 23:31:51 10° ENE visible
27 Apr ? 01:08:54 37° NNW 01:08:54 37° NNW 01:12:27 10° NNE visible
27 Apr ? 23:48:25 33° ENE 23:48:25 33° ENE 23:51:14 10° NE visible
28 Apr ? 01:25:30 18° WNW 01:27:11 22° NW 01:30:49 10° N visible
28 Apr ? 06:32:14 10° N 06:34:20 12° NNE 06:36:28 10° ENE visible
28 Apr ? 22:27:09 11° E 22:27:09 11° E 22:27:34 10° E visible
29 Apr ? 00:04:09 42° SW 00:05:33 76° NW 00:10:06 10° NNE visible
29 Apr ? 01:44:08 10° WNW 01:46:25 14° NW 01:48:47 10° N visible
29 Apr ? 06:50:01 10° N 06:53:38 20° NE 06:57:20 10° E visible
29 Apr ? 22:41:13 10° SSE 22:44:38 25° ESE 22:48:15 10° ENE visible
30 Apr ? 00:20:26 10° WSW 00:24:25 37° NW 00:28:41 10° NNE visible
30 Apr ? 22:59:01 10° SSW 23:03:06 54° ESE 23:07:31 10° NE visible
01 May ? 00:40:08 10° W 00:43:28 21° NW 00:47:01 10° N visible
01 May ? 05:48:18 10° N 05:50:40 13° NNE 05:53:04 10° ENE visible
01 May ? 23:17:33 10° SW 23:21:47 69° NW 23:26:20 10° NNE visible
02 May ? 01:00:38 10° WNW 01:02:44 13° NNW 01:04:52 10° N visible
02 May ? 06:06:09 10° N 06:09:56 21° NE 06:13:46 10° E visible
02 May ? 23:36:42 10° WSW 23:40:39 34° NW 23:44:53 10° NNE visible
03 May ? 06:24:24 10° NNW 06:28:59 35° NE 06:33:40 10° ESE visible
03 May ? 22:15:08 10° SSW 22:19:16 60° ESE 22:23:45 10° NE visible
03 May ? 23:56:28 10° W 23:59:43 20° NW 00:03:08 10° N visible
04 May ? 05:04:19 10° N 05:06:55 14° NE 05:09:34 10° ENE visible
04 May ? 06:42:53 10° NNW 06:47:53 64° NE 06:52:59 10° SE visible
04 May ? 22:33:44 10° SW 22:37:57 63° NW 22:42:30 10° NNE visible
